格洛纳斯-778 COSMOS 2324 [GLONASS]

导读 | 星芒AI

COSMOS 2324 是一颗俄罗斯 GLONASS 卫星,于1994年发射,用于全球导航卫星系统,提供定位和时间同步服务。该卫星运行在中地球轨道,设计寿命约5年。作为GLONASS星座的一部分,它支持俄罗斯及国际用户的导航需求。尽管已超出预期寿命,COSMOS 2324 仍在轨运行,但可能已不再提供有效服务。其状态和功能由俄罗斯航天机构持续监测。

基本信息
目录编号:
23735
目录名称:
COSMOS 2324 (GLONASS)
国际标识:
1995-068B
轨道中心:
EARTH
卫星名称:
格洛纳斯-778
卫星全名:
格洛纳斯-778 COSMOS 2324 [GLONASS]
卫星状态:
在轨 (已飞行10912 天)
发射日期:
1995-12-14 UTC
国别 :
俄罗斯(独联体) (CIS)
星等 :
--
轨道信息
数据来源 国际轨道数据 AOE轨道数据
星历时间 2025-10-28T06:37:18+0800
1天前
查看轨道信息
2025-10-29T11:00:00+0800
4小时前
查看轨道信息
半长轴 25507.969km 25507.873km
偏心率 0.0004249 0.0004266
轨道倾角 65.468° 65.468°
近地点辐角 103.028° 103.772°
升交点赤经 210.237° 210.198°
平近点角 257.072° 83.456°
近地点 19118.995km 19118.856km
远地点 19140.673km 19140.62km
周期 675.731分钟 675.727分钟
每日圈数 2.131027 2.131039
详细信息
平衡模式:
三轴稳定
覆盖范围:
全球
运营商:
列舍特涅夫卫星信息系统
运营商所在国:
俄罗斯
制造商(研发单位):
列舍特涅夫卫星信息系统
制造商所在国:
俄罗斯
使用方式:
暂无
卫星简介
格洛纳斯(GLONASS )是苏联/俄罗斯研制卫星导航系统。标准配置为24颗卫星,其中18颗卫星就能保证该系统为俄罗斯境内用户提供全部服务。该卫星已退役。
2D轨道图
3D轨道图
轨道高度分析图
轨道倾角分析图
轨道综合分析图
查看轨道综合分析图